Back to catalog

THORAD AGENA D DEB

AliveLEO
NORAD 4988·DEBRIS·🇺🇸 United States

Launched Apr 8, 1970 from Vandenberg Space Force Base

Loading…

Next Passes (next 24 hours)

TLE

FreshSource: Space-Track

Epoch: Sep 14, 2026, 11:27 UTC

1 04988U 70025HJ  26257.47712197  .00000303  00000-0  41746-3 0  9994
2 04988 100.0330 255.1850 0017321  58.9577  93.3396 13.67198740796022

Track THORAD AGENA D DEB in real time with AllMySat

Download on the App Store